TimeCDT,TemperatureF,Dew PointF,Humidity,Sea Level PressureIn,VisibilityMPH,Wind Direction,Wind SpeedMPH,Gust SpeedMPH,PrecipitationIn,Events,Conditions,WindDirDegrees,DateUTC
12:15 AM,39.7,36.1,87,30.39,10.0,Calm,Calm,-,N/A,,Clear,0,2013-04-26 05:15:00
12:35 AM,38.8,35.6,88,30.39,10.0,Calm,Calm,-,N/A,,Clear,0,2013-04-26 05:35:00
12:55 AM,38.8,36.0,89,30.39,10.0,Calm,Calm,-,N/A,,Clear,0,2013-04-26 05:55:00
1:15 AM,38.3,35.6,90,30.39,10.0,Calm,Calm,-,N/A,,Clear,0,2013-04-26 06:15:00
1:35 AM,37.4,35.1,91,30.39,10.0,Calm,Calm,-,N/A,,Clear,0,2013-04-26 06:35:00
2:15 AM,36.9,34.9,93,30.39,10.0,Calm,Calm,-,N/A,,Clear,0,2013-04-26 07:15:00
2:35 AM,36.9,34.9,93,30.39,10.0,Calm,Calm,-,N/A,,Clear,0,2013-04-26 07:35:00
2:55 AM,36.3,34.5,93,30.39,10.0,Calm,Calm,-,N/A,,Clear,0,2013-04-26 07:55:00
3:15 AM,35.8,34.5,95,30.39,10.0,Calm,Calm,-,N/A,,Clear,0,2013-04-26 08:15:00
3:35 AM,35.4,34.0,94,30.39,10.0,Calm,Calm,-,N/A,,Clear,0,2013-04-26 08:35:00
3:55 AM,35.1,34.0,96,30.39,10.0,Calm,Calm,-,N/A,,Clear,0,2013-04-26 08:55:00
4:15 AM,34.3,33.3,96,30.40,10.0,Calm,Calm,-,N/A,,Clear,0,2013-04-26 09:15:00
4:35 AM,34.3,33.4,97,30.41,10.0,Calm,Calm,-,N/A,,Clear,0,2013-04-26 09:35:00
4:55 AM,34.2,33.3,97,30.41,10.0,Calm,Calm,-,N/A,,Clear,0,2013-04-26 09:55:00
5:15 AM,34.0,32.9,96,30.41,10.0,Calm,Calm,-,N/A,,Clear,0,2013-04-26 10:15:00
5:35 AM,33.6,32.4,95,30.42,7.0,Calm,Calm,-,N/A,,Clear,0,2013-04-26 10:35:00
5:55 AM,33.4,32.2,95,30.43,10.0,Calm,Calm,-,N/A,,Clear,0,2013-04-26 10:55:00
6:15 AM,33.8,32.5,95,30.44,10.0,Calm,Calm,-,N/A,,Clear,0,2013-04-26 11:15:00
6:35 AM,34.0,32.9,96,30.44,10.0,Calm,Calm,-,N/A,,Clear,0,2013-04-26 11:35:00
6:55 AM,35.1,34.0,96,30.45,10.0,Calm,Calm,-,N/A,,Clear,0,2013-04-26 11:55:00
7:15 AM,37.4,34.7,90,30.45,10.0,Calm,Calm,-,N/A,,Clear,0,2013-04-26 12:15:00
7:35 AM,37.9,35.2,90,30.45,10.0,Calm,Calm,-,N/A,,Clear,0,2013-04-26 12:35:00
7:55 AM,40.6,36.7,86,30.44,10.0,Calm,Calm,-,N/A,,Clear,0,2013-04-26 12:55:00
8:15 AM,41.7,36.7,82,30.44,10.0,Calm,Calm,-,N/A,,Clear,0,2013-04-26 13:15:00
8:35 AM,44.1,35.6,72,30.44,10.0,Calm,Calm,-,N/A,,Clear,0,2013-04-26 13:35:00
8:55 AM,47.3,37.4,68,30.42,10.0,ENE,3.5,-,N/A,,Clear,60,2013-04-26 13:55:00
9:15 AM,49.3,36.9,62,30.41,10.0,Calm,Calm,-,N/A,,Clear,0,2013-04-26 14:15:00
9:35 AM,51.8,37.0,57,30.41,10.0,Calm,Calm,-,N/A,,Clear,0,2013-04-26 14:35:00
9:55 AM,54.1,37.0,52,30.42,10.0,Calm,Calm,-,N/A,,Clear,0,2013-04-26 14:55:00
10:15 AM,57.6,37.8,48,30.42,10.0,Calm,Calm,-,N/A,,Clear,0,2013-04-26 15:15:00
10:35 AM,59.0,35.2,41,30.42,10.0,Calm,Calm,-,N/A,,Clear,0,2013-04-26 15:35:00
10:55 AM,60.6,37.2,42,30.42,10.0,North,4.6,-,N/A,,Clear,360,2013-04-26 15:55:00
11:15 AM,60.1,34.7,39,30.41,10.0,Calm,Calm,-,N/A,,Clear,0,2013-04-26 16:15:00
11:35 AM,61.9,36.9,39,30.41,10.0,East,3.5,-,N/A,,Clear,100,2013-04-26 16:35:00
11:55 AM,62.2,35.1,36,30.41,10.0,Calm,Calm,-,N/A,,Clear,0,2013-04-26 16:55:00
12:15 PM,63.0,33.6,33,30.40,10.0,NNE,4.6,-,N/A,,Clear,20,2013-04-26 17:15:00
12:35 PM,64.2,35.2,34,30.40,10.0,North,3.5,-,N/A,,Clear,350,2013-04-26 17:35:00
12:55 PM,63.3,26.6,25,30.40,10.0,Calm,Calm,-,N/A,,Clear,0,2013-04-26 17:55:00
1:15 PM,65.3,26.4,23,30.39,10.0,ESE,3.5,-,N/A,,Clear,110,2013-04-26 18:15:00
1:35 PM,65.5,31.8,28,30.39,10.0,Calm,Calm,-,N/A,,Clear,0,2013-04-26 18:35:00
1:55 PM,65.5,32.5,29,30.38,10.0,Calm,Calm,-,N/A,,Clear,0,2013-04-26 18:55:00
2:15 PM,65.7,31.5,28,30.37,10.0,Calm,Calm,-,N/A,,Clear,0,2013-04-26 19:15:00
2:35 PM,65.8,32.4,29,30.36,10.0,South,3.5,-,N/A,,Clear,170,2013-04-26 19:35:00
2:55 PM,65.8,32.0,28,30.34,10.0,Calm,Calm,-,N/A,,Clear,0,2013-04-26 19:55:00
3:15 PM,67.1,33.4,29,30.32,10.0,SSE,3.5,-,N/A,,Clear,150,2013-04-26 20:15:00
3:35 PM,66.2,32.9,29,30.31,10.0,Calm,Calm,-,N/A,,Mostly Cloudy,0,2013-04-26 20:35:00
3:55 PM,66.4,32.2,28,30.32,10.0,Calm,Calm,-,N/A,,Mostly Cloudy,0,2013-04-26 20:55:00
4:15 PM,65.8,30.7,27,30.32,10.0,Calm,Calm,-,N/A,,Mostly Cloudy,0,2013-04-26 21:15:00
4:35 PM,64.9,33.8,31,30.32,10.0,Calm,Calm,-,N/A,,Overcast,0,2013-04-26 21:35:00
4:55 PM,64.9,35.4,33,30.33,10.0,Calm,Calm,-,N/A,,Overcast,0,2013-04-26 21:55:00
5:15 PM,64.6,38.3,38,30.34,10.0,North,3.5,-,N/A,,Overcast,360,2013-04-26 22:15:00
5:35 PM,64.6,35.2,34,30.36,10.0,WNW,4.6,-,N/A,,Overcast,290,2013-04-26 22:35:00
5:55 PM,63.9,37.8,38,30.37,10.0,WNW,5.8,-,N/A,,Overcast,290,2013-04-26 22:55:00
6:15 PM,63.0,37.6,39,30.38,10.0,WNW,4.6,-,N/A,,Overcast,290,2013-04-26 23:15:00
6:35 PM,62.6,36.0,37,30.38,10.0,WSW,3.5,-,N/A,,Overcast,250,2013-04-26 23:35:00
6:55 PM,62.6,35.4,36,30.38,10.0,WSW,3.5,-,N/A,,Overcast,240,2013-04-26 23:55:00
7:15 PM,62.1,36.0,38,30.36,10.0,WSW,5.8,-,N/A,,Overcast,240,2013-04-27 00:15:00
7:35 PM,61.7,35.6,38,30.36,10.0,West,4.6,-,N/A,,Overcast,270,2013-04-27 00:35:00
7:55 PM,60.8,37.0,41,30.34,10.0,Calm,Calm,-,N/A,,Overcast,0,2013-04-27 00:55:00
8:15 PM,59.9,38.3,45,30.33,10.0,Calm,Calm,-,N/A,,Overcast,0,2013-04-27 01:15:00
8:35 PM,58.6,39.2,48,30.33,10.0,Calm,Calm,-,N/A,,Mostly Cloudy,0,2013-04-27 01:35:00
8:55 PM,57.2,41.0,55,30.36,10.0,Calm,Calm,-,N/A,,Overcast,0,2013-04-27 01:55:00
9:15 PM,56.8,40.8,55,30.37,10.0,Calm,Calm,-,N/A,,Overcast,0,2013-04-27 02:15:00
9:35 PM,57.0,41.4,56,30.36,10.0,Calm,Calm,-,N/A,,Overcast,0,2013-04-27 02:35:00
9:55 PM,56.5,41.4,57,30.37,10.0,Calm,Calm,-,N/A,,Overcast,0,2013-04-27 02:55:00
10:15 PM,56.5,40.8,56,30.36,10.0,Calm,Calm,-,N/A,,Overcast,0,2013-04-27 03:15:00
10:35 PM,55.0,44.6,68,30.36,10.0,Calm,Calm,-,N/A,Rain,Light Rain,0,2013-04-27 03:35:00
10:55 PM,54.5,46.4,74,30.36,10.0,Calm,Calm,-,N/A,,Overcast,0,2013-04-27 03:55:00
11:15 PM,53.8,46.8,77,30.34,10.0,Calm,Calm,-,N/A,,Overcast,0,2013-04-27 04:15:00
11:35 PM,54.0,45.1,72,30.35,10.0,Calm,Calm,-,N/A,,Overcast,0,2013-04-27 04:35:00
11:55 PM,53.6,45.3,74,30.35,10.0,NW,3.5,-,N/A,,Overcast,320,2013-04-27 04:55:00